| time (UTC) | temp C | wind direction | speed KPH | gust KPH | rain 1hr cm | rain 24hr cm | rain mn cm | humidity % | barometer mb |
| 20260505093012 | 15 | 86 | 3.2 | 11.3 | 0.00 | 0.00 | 0.00 | 82 | 1010.7 |
| 20260505092510 | 15 | 129 | 4.8 | 4.8 | 0.00 | 0.00 | 0.00 | 83 | 1010.6 |
| 20260505092008 | 15 | 132 | 4.8 | 11.3 | 0.00 | 0.00 | 0.00 | 83 | 1010.8 |
| 20260505091504 | 15 | 119 | 6.4 | 9.7 | 0.00 | 0.00 | 0.00 | 83 | 1010.8 |
| 20260505091003 | 15 | 143 | 6.4 | 9.7 | 0.00 | 0.00 | 0.00 | 83 | 1010.8 |
| 20260505090500 | 15 | 119 | 1.6 | 3.2 | 0.00 | 0.00 | 0.00 | 83 | 1010.8 |
| 20260505085957 | 15 | 108 | 4.8 | 9.7 | 0.00 | 0.00 | 0.00 | 83 | 1010.6 |
| 20260505085455 | 14 | 133 | 6.4 | 9.7 | 0.00 | 0.00 | 0.00 | 83 | 1010.6 |
| 20260505084954 | 14 | 108 | 0.0 | 8.0 | 0.00 | 0.00 | 0.00 | 83 | 1010.8 |
| 20260505084452 | 14 | 121 | 4.8 | 8.0 | 0.00 | 0.00 | 0.00 | 83 | 1010.7 |
| 20260505083949 | 14 | 145 | 4.8 | 8.0 | 0.00 | 0.00 | 0.00 | 83 | 1010.5 |
| 20260505083446 | 14 | 107 | 1.6 | 8.0 | 0.00 | 0.00 | 0.00 | 83 | 1010.8 |
| 20260505082942 | 14 | 113 | 3.2 | 8.0 | 0.00 | 0.00 | 0.00 | 83 | 1010.7 |
| 20260505082438 | 14 | 104 | 0.0 | 9.7 | 0.00 | 0.00 | 0.00 | 83 | 1010.5 |
| 20260505081936 | 14 | 119 | 4.8 | 8.0 | 0.00 | 0.00 | 0.00 | 83 | 1010.6 |
| 20260505081432 | 14 | 99 | 3.2 | 9.7 | 0.00 | 0.00 | 0.00 | 84 | 1010.7 |
| 20260505080929 | 14 | 106 | 3.2 | 4.8 | 0.00 | 0.00 | 0.00 | 84 | 1010.5 |
| 20260505080425 | 14 | 121 | 4.8 | 4.8 | 0.00 | 0.00 | 0.00 | 84 | 1010.6 |
| 20260505075920 | 14 | 111 | 1.6 | 4.8 | 0.00 | 0.00 | 0.00 | 84 | 1010.7 |
| 20260505075417 | 13 | 100 | 0.0 | 3.2 | 0.00 | 0.00 | 0.00 | 84 | 1010.7 |
| 20260505074915 | 13 | 122 | 0.0 | 3.2 | 0.00 | 0.00 | 0.00 | 85 | 1010.6 |
| 20260505074412 | 13 | 110 | 1.6 | 1.6 | 0.00 | 0.00 | 0.00 | 85 | 1010.7 |
| 20260505073909 | 13 | 108 | 0.0 | 3.2 | 0.00 | 0.00 | 0.00 | 84 | 1010.6 |
| 20260505073407 | 13 | 118 | 1.6 | 3.2 | 0.00 | 0.00 | 0.00 | 84 | 1010.5 |
| 20260505072904 | 13 | 94 | 3.2 | 4.8 | 0.00 | 0.00 | 0.00 | 85 | 1010.3 |
| 20260505072400 | 13 | 109 | 1.6 | 3.2 | 0.00 | 0.00 | 0.00 | 85 | 1010.3 |
| 20260505071856 | 13 | 107 | 1.6 | 8.0 | 0.00 | 0.00 | 0.00 | 85 | 1010.5 |
| 20260505071352 | 13 | 107 | 0.0 | 4.8 | 0.00 | 0.00 | 0.00 | 86 | 1010.6 |
| 20260505070851 | 13 | 109 | 0.0 | 0.0 | 0.00 | 0.00 | 0.00 | 87 | 1010.3 |
| 20260505070347 | 13 | 104 | 0.0 | 9.7 | 0.00 | 0.00 | 0.00 | 87 | 1010.6 |
| 20260505065842 | 13 | 108 | 0.0 | 3.2 | 0.00 | 0.00 | 0.00 | 88 | 1010.5 |
| 20260505065339 | 12 | 108 | 0.0 | 0.0 | 0.00 | 0.00 | 0.00 | 89 | 1010.5 |
| 20260505064836 | 12 | 117 | 1.6 | 1.6 | 0.00 | 0.00 | 0.00 | 90 | 1010.6 |
| 20260505064333 | 12 | 110 | 0.0 | 1.6 | 0.00 | 0.00 | 0.00 | 91 | 1010.6 |
| 20260505063831 | 12 | 114 | 0.0 | 0.0 | 0.00 | 0.00 | 0.00 | 92 | 1010.5 |
| 20260505063327 | 12 | 107 | 0.0 | 1.6 | 0.00 | 0.00 | 0.00 | 92 | 1010.6 |
| 20260505062824 | 12 | 111 | 0.0 | 0.0 | 0.00 | 0.00 | 0.00 | 92 | 1010.7 |
| 20260505062321 | 12 | 105 | 0.0 | 0.0 | 0.00 | 0.00 | 0.00 | 92 | 1010.5 |
| 20260505061818 | 12 | 106 | 0.0 | 0.0 | 0.00 | 0.00 | 0.00 | 92 | 1010.6 |
| 20260505061316 | 12 | 109 | 0.0 | 0.0 | 0.00 | 0.00 | 0.00 | 92 | 1010.8 |
| 20260505060813 | 12 | 104 | 0.0 | 0.0 | 0.00 | 0.00 | 0.00 | 91 | 1010.8 |
| 20260505060310 | 12 | 103 | 0.0 | 1.6 | 0.00 | 0.00 | 0.00 | 91 | 1010.7 |
| 20260505055806 | 12 | 95 | 1.6 | 1.6 | 0.00 | 0.00 | 0.00 | 91 | 1010.7 |
| 20260505055303 | 13 | 106 | 0.0 | 0.0 | 0.00 | 0.00 | 0.00 | 90 | 1010.7 |
| 20260505054800 | 13 | 103 | 0.0 | 0.0 | 0.00 | 0.00 | 0.00 | 90 | 1010.8 |
| 20260505054257 | 13 | 107 | 0.0 | 0.0 | 0.00 | 0.00 | 0.00 | 89 | 1010.9 |
| 20260505053755 | 13 | 107 | 0.0 | 0.0 | 0.00 | 0.00 | 0.00 | 89 | 1010.8 |
| 20260505053252 | 13 | 98 | 0.0 | 1.6 | 0.00 | 0.00 | 0.00 | 89 | 1010.8 |
| 20260505052749 | 13 | 107 | 0.0 | 0.0 | 0.00 | 0.00 | 0.00 | 88 | 1010.7 |
| 20260505052246 | 13 | 104 | 0.0 | 0.0 | 0.00 | 0.00 | 0.00 | 87 | 1010.9 |
| 20260505051742 | 13 | 111 | 0.0 | 0.0 | 0.00 | 0.00 | 0.00 | 85 | 1011.0 |
| 20260505051240 | 13 | 107 | 0.0 | 0.0 | 0.00 | 0.00 | 0.00 | 83 | 1010.8 |
| 20260505050738 | 13 | 107 | 0.0 | 0.0 | 0.00 | 0.00 | 0.00 | 82 | 1011.0 |
| 20260505050237 | 13 | 108 | 0.0 | 1.6 | 0.00 | 0.00 | 0.00 | 81 | 1011.2 |
| 20260505041706 | 15 | 105 | 0.0 | 0.0 | 0.00 | 0.00 | 0.00 | 75 | 1010.9 |
| 20260505041203 | 15 | 99 | 0.0 | 1.6 | 0.00 | 0.00 | 0.00 | 74 | 1011.3 |
| 20260505040700 | 15 | 100 | 0.0 | 3.2 | 0.00 | 0.00 | 0.00 | 73 | 1011.0 |
| 20260505040157 | 15 | 101 | 0.0 | 3.2 | 0.00 | 0.00 | 0.00 | 73 | 1011.1 |
| 20260505035654 | 15 | 108 | 0.0 | 4.8 | 0.00 | 0.00 | 0.00 | 73 | 1011.2 |
| 20260505035150 | 15 | 112 | 1.6 | 3.2 | 0.00 | 0.00 | 0.00 | 73 | 1011.1 |
| 20260505034647 | 15 | 103 | 0.0 | 1.6 | 0.00 | 0.00 | 0.00 | 72 | 1011.0 |
| 20260505034144 | 15 | 97 | 0.0 | 1.6 | 0.00 | 0.00 | 0.00 | 72 | 1011.0 |
| 20260505033640 | 15 | 103 | 0.0 | 1.6 | 0.00 | 0.00 | 0.00 | 72 | 1011.2 |
| 20260505033139 | 15 | 107 | 0.0 | 1.6 | 0.00 | 0.00 | 0.00 | 71 | 1011.2 |
| 20260505032637 | 15 | 105 | 0.0 | 0.0 | 0.00 | 0.00 | 0.00 | 71 | 1011.2 |
| 20260505032132 | 15 | 104 | 0.0 | 8.0 | 0.00 | 0.00 | 0.00 | 71 | 1011.3 |
| 20260505031630 | 15 | 99 | 1.6 | 3.2 | 0.00 | 0.00 | 0.00 | 71 | 1011.5 |
| 20260505031126 | 15 | 112 | 1.6 | 4.8 | 0.00 | 0.00 | 0.00 | 71 | 1011.4 |
| 20260505030623 | 15 | 107 | 0.0 | 0.0 | 0.00 | 0.00 | 0.00 | 72 | 1011.4 |
| 20260505030119 | 15 | 107 | 0.0 | 1.6 | 0.00 | 0.00 | 0.00 | 72 | 1011.5 |
| 20260505025615 | 15 | 107 | 0.0 | 0.0 | 0.00 | 0.00 | 0.00 | 72 | 1011.4 |
| 20260505025114 | 15 | 109 | 0.0 | 4.8 | 0.00 | 0.00 | 0.00 | 71 | 1011.5 |
| 20260505024611 | 15 | 106 | 0.0 | 0.0 | 0.00 | 0.00 | 0.00 | 72 | 1011.5 |
| 20260505024108 | 15 | 107 | 0.0 | 1.6 | 0.00 | 0.00 | 0.00 | 72 | 1011.5 |
| 20260505023605 | 15 | 99 | 0.0 | 1.6 | 0.00 | 0.00 | 0.00 | 72 | 1011.6 |
| 20260505023103 | 15 | 109 | 0.0 | 3.2 | 0.00 | 0.00 | 0.00 | 72 | 1011.5 |
| 20260505022600 | 15 | 107 | 0.0 | 1.6 | 0.00 | 0.00 | 0.00 | 72 | 1011.8 |
| 20260505022057 | 15 | 102 | 0.0 | 0.0 | 0.00 | 0.00 | 0.00 | 72 | 1011.7 |
| 20260505021553 | 15 | 105 | 0.0 | 0.0 | 0.00 | 0.00 | 0.00 | 73 | 1011.8 |
| 20260505021050 | 15 | 108 | 1.6 | 8.0 | 0.00 | 0.00 | 0.00 | 73 | 1011.8 |
| 20260505020550 | 15 | 102 | 0.0 | 0.0 | 0.00 | 0.00 | 0.00 | 73 | 1011.5 |
| 20260505020047 | 15 | 104 | 1.6 | 3.2 | 0.00 | 0.00 | 0.00 | 72 | 1011.7 |
| 20260505015544 | 15 | 107 | 0.0 | 4.8 | 0.00 | 0.00 | 0.00 | 72 | 1011.7 |
| 20260505015041 | 15 | 81 | 1.6 | 3.2 | 0.00 | 0.00 | 0.00 | 72 | 1011.6 |
| 20260505014538 | 15 | 102 | 1.6 | 3.2 | 0.00 | 0.00 | 0.00 | 72 | 1011.5 |
| 20260505014035 | 15 | 101 | 0.0 | 3.2 | 0.00 | 0.00 | 0.00 | 73 | 1011.4 |
| 20260505013532 | 15 | 106 | 0.0 | 1.6 | 0.00 | 0.00 | 0.00 | 73 | 1011.5 |
| 20260505013030 | 15 | 107 | 1.6 | 1.6 | 0.00 | 0.00 | 0.00 | 72 | 1011.6 |
| 20260505012527 | 15 | 96 | 1.6 | 3.2 | 0.00 | 0.00 | 0.00 | 72 | 1011.4 |
| 20260505012024 | 15 | 106 | 1.6 | 3.2 | 0.00 | 0.00 | 0.00 | 72 | 1011.3 |
| 20260505011520 | 15 | 102 | 1.6 | 3.2 | 0.00 | 0.00 | 0.00 | 72 | 1011.2 |
| 20260505011017 | 15 | 104 | 0.0 | 9.7 | 0.00 | 0.00 | 0.00 | 72 | 1011.3 |
| 20260505010512 | 15 | 113 | 1.6 | 4.8 | 0.00 | 0.00 | 0.00 | 73 | 1011.2 |
| 20260505010009 | 15 | 105 | 0.0 | 3.2 | 0.00 | 0.00 | 0.00 | 72 | 1011.2 |
| 20260505005506 | 15 | 102 | 0.0 | 9.7 | 0.00 | 0.00 | 0.00 | 72 | 1011.1 |
| 20260505005004 | 15 | 100 | 1.6 | 4.8 | 0.00 | 0.00 | 0.00 | 74 | 1011.2 |
| 20260505004500 | 15 | 115 | 1.6 | 3.2 | 0.00 | 0.00 | 0.00 | 75 | 1011.0 |
| 20260505003956 | 15 | 36 | 4.8 | 8.0 | 0.00 | 0.00 | 0.00 | 75 | 1011.0 |
| 20260505003454 | 15 | 111 | 0.0 | 1.6 | 0.00 | 0.00 | 0.00 | 75 | 1011.0 |
| 20260505002950 | 15 | 112 | 3.2 | 3.2 | 0.00 | 0.00 | 0.00 | 74 | 1011.1 |
| 20260505002446 | 15 | 109 | 0.0 | 8.0 | 0.00 | 0.00 | 0.00 | 74 | 1010.9 |
| 20260505001945 | 15 | 99 | 6.4 | 11.3 | 0.00 | 0.00 | 0.00 | 73 | 1010.6 |
| 20260505001442 | 16 | 109 | 4.8 | 4.8 | 0.00 | 0.00 | 0.00 | 73 | 1010.7 |
| 20260505000939 | 16 | 106 | 1.6 | 4.8 | 0.00 | 0.00 | 0.00 | 70 | 1010.4 |
| 20260505000437 | 16 | 98 | 0.0 | 4.8 | 0.00 | 0.00 | 0.00 | 67 | 1010.4 |
| 20260504235934 | 16 | 98 | 3.2 | 4.8 | 0.00 | 0.00 | 0.00 | 66 | 1010.3 |
| 20260504235431 | 16 | 51 | 0.0 | 3.2 | 0.00 | 0.00 | 0.00 | 66 | 1010.5 |
| 20260504234927 | 16 | 101 | 8.0 | 9.7 | 0.00 | 0.00 | 0.00 | 66 | 1010.3 |
| 20260504234425 | 17 | 103 | 1.6 | 9.7 | 0.00 | 0.00 | 0.00 | 66 | 1010.3 |
| 20260504233921 | 17 | 105 | 1.6 | 3.2 | 0.00 | 0.00 | 0.00 | 66 | 1010.3 |
| 20260504233417 | 17 | 97 | 4.8 | 4.8 | 0.00 | 0.00 | 0.00 | 66 | 1010.3 |
| 20260504232914 | 17 | 104 | 3.2 | 4.8 | 0.00 | 0.00 | 0.00 | 64 | 1010.2 |
| 20260504232411 | 17 | 99 | 0.0 | 3.2 | 0.00 | 0.00 | 0.00 | 63 | 1010.1 |
| 20260504231908 | 18 | 106 | 1.6 | 3.2 | 0.00 | 0.00 | 0.00 | 61 | 1010.1 |
| 20260504231404 | 18 | 99 | 1.6 | 9.7 | 0.00 | 0.00 | 0.00 | 61 | 1009.9 |
| 20260504230900 | 17 | 105 | 4.8 | 9.7 | 0.00 | 0.00 | 0.00 | 61 | 1009.9 |
| 20260504230358 | 18 | 86 | 3.2 | 4.8 | 0.00 | 0.00 | 0.00 | 63 | 1010.0 |
| 20260504225856 | 18 | 90 | 1.6 | 3.2 | 0.00 | 0.00 | 0.00 | 62 | 1010.2 |
| 20260504225352 | 18 | 84 | 4.8 | 4.8 | 0.00 | 0.00 | 0.00 | 63 | 1010.2 |
| 20260504224850 | 18 | 107 | 1.6 | 3.2 | 0.00 | 0.00 | 0.00 | 63 | 1009.8 |
| 20260504224347 | 18 | 101 | 1.6 | 4.8 | 0.00 | 0.00 | 0.00 | 63 | 1010.0 |
| 20260504223843 | 18 | 97 | 1.6 | 3.2 | 0.00 | 0.00 | 0.00 | 61 | 1009.8 |
| 20260504223339 | 18 | 99 | 0.0 | 3.2 | 0.00 | 0.00 | 0.00 | 61 | 1009.7 |
| 20260504222836 | 18 | 106 | 4.8 | 8.0 | 0.00 | 0.00 | 0.00 | 60 | 1009.8 |
| 20260504222333 | 18 | 75 | 8.0 | 9.7 | 0.00 | 0.00 | 0.00 | 59 | 1010.0 |
| 20260504221831 | 19 | 62 | 4.8 | 8.0 | 0.00 | 0.00 | 0.00 | 59 | 1009.6 |
| 20260504221327 | 18 | 96 | 1.6 | 9.7 | 0.00 | 0.00 | 0.00 | 58 | 1009.8 |
| 20260504220825 | 19 | 103 | 0.0 | 8.0 | 0.00 | 0.00 | 0.00 | 58 | 1009.9 |
| 20260504220321 | 19 | 64 | 3.2 | 8.0 | 0.00 | 0.00 | 0.00 | 58 | 1009.8 |
| 20260504215819 | 18 | 98 | 1.6 | 3.2 | 0.00 | 0.00 | 0.00 | 60 | 1009.9 |
| 20260504215315 | 19 | 76 | 1.6 | 9.7 | 0.00 | 0.00 | 0.00 | 59 | 1010.1 |
| 20260504214811 | 20 | 93 | 3.2 | 3.2 | 0.00 | 0.00 | 0.00 | 58 | 1010.2 |
| 20260504214308 | 19 | 102 | 1.6 | 3.2 | 0.00 | 0.00 | 0.00 | 58 | 1010.0 |
| 20260504213804 | 19 | 58 | 3.2 | 11.3 | 0.00 | 0.00 | 0.00 | 58 | 1010.2 |
| 20260504213300 | 20 | 338 | 8.0 | 11.3 | 0.00 | 0.00 | 0.00 | 56 | 1010.3 |
| 20260504212758 | 20 | 103 | 3.2 | 4.8 | 0.00 | 0.00 | 0.00 | 56 | 1010.1 |
| 20260504212254 | 20 | 82 | 4.8 | 8.0 | 0.00 | 0.00 | 0.00 | 57 | 1010.1 |
| 20260504211752 | 20 | 109 | 3.2 | 9.7 | 0.00 | 0.00 | 0.00 | 56 | 1009.9 |
| 20260504211247 | 20 | 31 | 3.2 | 9.7 | 0.00 | 0.00 | 0.00 | 54 | 1009.9 |
| 20260504210745 | 20 | 103 | 0.0 | 4.8 | 0.00 | 0.00 | 0.00 | 55 | 1010.1 |
| 20260504210242 | 20 | 95 | 4.8 | 14.5 | 0.00 | 0.00 | 0.00 | 52 | 1010.0 |
| 20260504205739 | 20 | 103 | 1.6 | 9.7 | 0.00 | 0.00 | 0.00 | 53 | 1010.0 |
| 20260504205237 | 20 | 20 | 6.4 | 11.3 | 0.00 | 0.00 | 0.00 | 52 | 1009.8 |
| 20260504204735 | 20 | 98 | 6.4 | 14.5 | 0.00 | 0.00 | 0.00 | 51 | 1009.8 |
| 20260504204233 | 20 | 142 | 8.0 | 12.9 | 0.00 | 0.00 | 0.00 | 52 | 1009.9 |
| 20260504203732 | 20 | 97 | 3.2 | 16.1 | 0.00 | 0.00 | 0.00 | 52 | 1009.9 |
| 20260504203229 | 20 | 114 | 6.4 | 12.9 | 0.00 | 0.00 | 0.00 | 55 | 1009.7 |
| 20260504202729 | 21 | 105 | 1.6 | 11.3 | 0.00 | 0.00 | 0.00 | 52 | 1009.8 |
| 20260504202227 | 21 | 121 | 1.6 | 8.0 | 0.00 | 0.00 | 0.00 | 53 | 1010.0 |
| 20260504201724 | 21 | 72 | 1.6 | 14.5 | 0.00 | 0.00 | 0.00 | 53 | 1009.9 |
| 20260504201221 | 21 | 97 | 1.6 | 4.8 | 0.00 | 0.00 | 0.00 | 52 | 1009.7 |
| 20260504200718 | 21 | 113 | 3.2 | 3.2 | 0.00 | 0.00 | 0.00 | 53 | 1010.1 |
| 20260504200214 | 21 | 115 | 1.6 | 8.0 | 0.00 | 0.00 | 0.00 | 53 | 1010.2 |
| 20260504195711 | 21 | 104 | 3.2 | 8.0 | 0.00 | 0.00 | 0.00 | 54 | 1010.1 |
| 20260504195207 | 21 | 66 | 3.2 | 9.7 | 0.00 | 0.00 | 0.00 | 54 | 1010.3 |
| 20260504194704 | 21 | 94 | 1.6 | 4.8 | 0.00 | 0.00 | 0.00 | 53 | 1010.2 |
| 20260504194200 | 22 | 100 | 0.0 | 4.8 | 0.00 | 0.00 | 0.00 | 53 | 1010.1 |
| 20260504193656 | 22 | 108 | 4.8 | 8.0 | 0.00 | 0.00 | 0.00 | 53 | 1010.2 |
| 20260504193154 | 22 | 48 | 1.6 | 9.7 | 0.00 | 0.00 | 0.00 | 52 | 1010.1 |
| 20260504192652 | 22 | 111 | 0.0 | 1.6 | 0.00 | 0.00 | 0.00 | 51 | 1010.2 |
| 20260504192150 | 22 | 103 | 1.6 | 9.7 | 0.00 | 0.00 | 0.00 | 51 | 1010.5 |
| 20260504191648 | 22 | 120 | 4.8 | 16.1 | 0.00 | 0.00 | 0.00 | 49 | 1010.4 |
| 20260504191144 | 23 | 114 | 1.6 | 9.7 | 0.00 | 0.00 | 0.00 | 44 | 1010.5 |
| 20260504190640 | 22 | 123 | 1.6 | 11.3 | 0.00 | 0.00 | 0.00 | 35 | 1010.5 |
| 20260504190137 | 22 | 124 | 4.8 | 16.1 | 0.00 | 0.00 | 0.00 | 36 | 1010.8 |
| 20260504185633 | 22 | 110 | 4.8 | 9.7 | 0.00 | 0.00 | 0.00 | 34 | 1010.8 |
| 20260504185130 | 23 | 99 | 4.8 | 9.7 | 0.00 | 0.00 | 0.00 | 34 | 1010.8 |
| 20260504184626 | 22 | 104 | 9.7 | 14.5 | 0.00 | 0.00 | 0.00 | 35 | 1010.8 |
| 20260504184121 | 22 | 117 | 9.7 | 14.5 | 0.00 | 0.00 | 0.00 | 36 | 1011.0 |
| 20260504183619 | 21 | 109 | 8.0 | 12.9 | 0.00 | 0.00 | 0.00 | 36 | 1010.9 |
| 20260504183116 | 22 | 127 | 16.1 | 24.1 | 0.00 | 0.00 | 0.00 | 35 | 1011.1 |
| 20260504182614 | 22 | 66 | 6.4 | 9.7 | 0.00 | 0.00 | 0.00 | 35 | 1011.0 |
| 20260504182111 | 22 | 118 | 4.8 | 14.5 | 0.00 | 0.00 | 0.00 | 36 | 1011.3 |
| 20260504181608 | 21 | 161 | 9.7 | 12.9 | 0.00 | 0.00 | 0.00 | 36 | 1011.1 |
| 20260504181106 | 21 | 114 | 11.3 | 14.5 | 0.00 | 0.00 | 0.00 | 37 | 1011.4 |
| 20260504180604 | 21 | 134 | 16.1 | 16.1 | 0.00 | 0.00 | 0.00 | 36 | 1011.4 |
| 20260504180103 | 21 | 121 | 6.4 | 20.9 | 0.00 | 0.00 | 0.00 | 36 | 1011.5 |
| 20260504175600 | 22 | 80 | 1.6 | 14.5 | 0.00 | 0.00 | 0.00 | 37 | 1011.6 |
| 20260504175056 | 22 | 104 | 3.2 | 9.7 | 0.00 | 0.00 | 0.00 | 37 | 1011.4 |
| 20260504174555 | 21 | 120 | 6.4 | 12.9 | 0.00 | 0.00 | 0.00 | 36 | 1011.6 |
| 20260504174051 | 21 | 128 | 8.0 | 14.5 | 0.00 | 0.00 | 0.00 | 37 | 1011.6 |
| 20260504173548 | 21 | 90 | 8.0 | 14.5 | 0.00 | 0.00 | 0.00 | 36 | 1011.7 |
| 20260504173046 | 21 | 141 | 11.3 | 14.5 | 0.00 | 0.00 | 0.00 | 36 | 1011.9 |
| 20260504172541 | 21 | 49 | 11.3 | 20.9 | 0.00 | 0.00 | 0.00 | 36 | 1011.9 |
| 20260504172038 | 21 | 109 | 1.6 | 14.5 | 0.00 | 0.00 | 0.00 | 38 | 1011.9 |
| 20260504171535 | 21 | 108 | 8.0 | 16.1 | 0.00 | 0.00 | 0.00 | 39 | 1011.9 |
| 20260504171032 | 21 | 94 | 3.2 | 12.9 | 0.00 | 0.00 | 0.00 | 37 | 1012.2 |
| 20260504170528 | 21 | 79 | 4.8 | 12.9 | 0.00 | 0.00 | 0.00 | 36 | 1012.0 |
| 20260504150912 | 18 | 115 | 4.8 | 9.7 | 0.00 | 0.00 | 0.00 | 43 | 1013.4 |
| 20260504150409 | 18 | 120 | 4.8 | 22.5 | 0.00 | 0.00 | 0.00 | 43 | 1013.3 |
| 20260504140835 | 17 | 110 | 3.2 | 9.7 | 0.00 | 0.00 | 0.00 | 45 | 1013.8 |
| 20260504140331 | 17 | 102 | 1.6 | 14.5 | 0.00 | 0.00 | 0.00 | 45 | 1013.8 |
| 20260504130800 | 15 | 116 | 3.2 | 8.0 | 0.00 | 0.00 | 0.00 | 56 | 1014.3 |
| 20260504130256 | 15 | 112 | 8.0 | 9.7 | 0.00 | 0.00 | 0.00 | 57 | 1014.4 |
| 20260504120219 | 12 | 139 | 8.0 | 17.7 | 0.00 | 0.00 | 0.00 | 68 | 1014.8 |
| 20260504110647 | 10 | 110 | 8.0 | 14.5 | 0.00 | 0.00 | 0.00 | 72 | 1015.0 |
| 20260504110143 | 10 | 148 | 11.3 | 14.5 | 0.00 | 0.00 | 0.00 | 72 | 1015.2 |
| 20260504100609 | 9 | 137 | 9.7 | 12.9 | 0.00 | 0.00 | 0.00 | 70 | 1014.9 |
| 20260504100107 | 9 | 159 | 9.7 | 14.5 | 0.00 | 0.00 | 0.00 | 69 | 1015.0 |